Edinburgh Airport, United Kingdom

3:58 PM GMT on January 20, 2018 (GMT +0000)
Edinburgh Airport

Weather History for EGPH - October, 2013

Change the Weather History Date:

Thursday, October 17, 2013

  Actual Average Record
Temperature  
Mean Temperature 47 °F -  
Max Temperature 50 °F 51 °F 64 °F (1997)
Min Temperature 44 °F 39 °F 28 °F (2003)
Degree Days  
Heating Degree Days 18    
Moisture  
Dew Point 48 °F    
Average Humidity 99    
Maximum Humidity 100    
Minimum Humidity 93    
Precipitation  
Precipitation 0.00 in 0.08 in - ()
Sea Level Pressure  
Sea Level Pressure 29.80 in    
Wind  
Wind Speed 4 mph ()    
Max Wind Speed 10 mph    
Max Gust Speed -    
Visibility 4.4 miles    
Events Fog , Rain    
Averages and records for this station are not official NWS values.
T = Trace of Precipitation, MM = Missing Value Source: Averaged Metar Reports

Daily Weather History Graph

Daily Weather History Graph

Search for Another Location

Airport or City:

Trip Planner

Search our weather history database for the weather conditions in past years. The results will help you decide how hot, cold, wet, or windy it might be!

Date:

Astronomy

Oct. 17, 2013 Rise Set
Actual Time 7:48 AM BST 6:07 PM BST
Civil Twilight 7:11 AM BST 6:45 PM BST
Nautical Twilight 6:28 AM BST 7:28 PM BST
Astronomical Twilight 5:44 AM BST 8:11 PM BST
Moon 5:22 PM BST (10/17) 5:52 AM BST (10/17)
Length of Visible Light 11h 34m
Length of Day
10h 18m
Waxing Gibbous, 97% of the Moon is Illuminated
Oct 17
Waxing Gibbous
Oct 19
Full
Oct 27
Last Quarter
Nov 3
New
Nov 10
First Quarter

Hourly Weather History & Observations

Time (BST) Temp. Windchill Dew Point Humidity Pressure Visibility Wind Dir Wind Speed Gust Speed Precip Events Conditions
12:20 AM 48.2 °F - 48.2 °F 100% 29.62 in 6.2 mi North 3.5 mph - N/A Rain Light Rain
12:50 AM 48.2 °F - 48.2 °F 100% 29.62 in 5.6 mi Variable 3.5 mph - N/A Rain Light Rain
1:20 AM 48.2 °F - 48.2 °F 100% 29.65 in 6.2 mi Variable 2.3 mph - N/A Rain Light Rain
1:50 AM 48.2 °F - 48.2 °F 100% 29.65 in 6.2 mi Variable 3.5 mph - N/A Rain Light Rain
2:20 AM 48.2 °F - 48.2 °F 100% 29.65 in 6.2 mi Variable 2.3 mph - N/A Rain Light Rain
2:50 AM 48.2 °F - 48.2 °F 100% 29.68 in 6.2 mi Variable 2.3 mph - N/A Rain Light Rain
3:20 AM 48.2 °F - 46.4 °F 93% 29.68 in 6.2 mi Calm Calm - N/A   Scattered Clouds
3:50 AM 44.6 °F 43.1 °F 44.6 °F 100% 29.68 in 6.2 mi WSW 3.5 mph - N/A   Mostly Cloudy
4:20 AM 46.4 °F 44.3 °F 44.6 °F 93% 29.68 in 6.2 mi WSW 4.6 mph - N/A   Overcast
4:50 AM 44.6 °F 42.2 °F 44.6 °F 100% 29.68 in 6.2 mi WSW 4.6 mph - N/A   Overcast
5:20 AM 44.6 °F 43.1 °F 44.6 °F 100% 29.71 in 6.2 mi WSW 3.5 mph - N/A   Scattered Clouds
5:50 AM 44.6 °F - 44.6 °F 100% 29.71 in 6.2 mi Calm Calm - N/A Fog Shallow Fog
6:20 AM 44.6 °F 43.1 °F 44.6 °F 100% 29.71 in 1.2 mi SW 3.5 mph - N/A   Mostly Cloudy
6:50 AM 46.4 °F 45.2 °F 46.4 °F 100% 29.71 in 3.7 mi West 3.5 mph - N/A Rain Light Rain
7:20 AM 46.4 °F - 46.4 °F 100% 29.74 in 3.1 mi Variable 2.3 mph - N/A Rain Light Rain
7:50 AM 46.4 °F - 46.4 °F 100% 29.74 in 1.9 mi Variable 2.3 mph - N/A   Drizzle
8:20 AM 46.4 °F - 46.4 °F 100% 29.74 in 1.9 mi Calm Calm - N/A Fog Light Drizzle
8:50 AM 46.4 °F - 46.4 °F 100% 29.77 in 2.2 mi Calm Calm - N/A   Overcast
9:20 AM 48.2 °F - 48.2 °F 100% 29.77 in 3.1 mi Variable 3.5 mph - N/A   Overcast
9:50 AM 48.2 °F - 48.2 °F 100% 29.77 in 1.2 mi Variable 3.5 mph - N/A   Drizzle
10:20 AM 48.2 °F - 48.2 °F 100% 29.77 in 5.6 mi Variable 3.5 mph - N/A   Mostly Cloudy
10:50 AM 48.2 °F - 48.2 °F 100% 29.77 in 6.2 mi East 3.5 mph - N/A Rain Light Rain
11:20 AM 48.2 °F - 48.2 °F 100% 29.80 in 2.5 mi ENE 3.5 mph - N/A Rain Light Rain Showers
11:50 AM 50.0 °F - 48.2 °F 94% 29.80 in 1.7 mi NE 4.6 mph - N/A   Drizzle
12:20 PM 50.0 °F - 50.0 °F 100% 29.80 in 3.7 mi ENE 4.6 mph - N/A Rain Light Rain Showers
12:50 PM 50.0 °F - 50.0 °F 100% 29.80 in - ENE 5.8 mph - N/A   Drizzle
1:20 PM 50.0 °F - 50.0 °F 100% 29.80 in - ENE 5.8 mph - N/A   Drizzle
1:50 PM 50.0 °F - 50.0 °F 100% 29.83 in 1.9 mi ENE 5.8 mph - N/A Rain Rain
2:20 PM 50.0 °F - 50.0 °F 100% 29.83 in 2.2 mi NE 5.8 mph - N/A   Drizzle
2:50 PM 50.0 °F - 50.0 °F 100% 29.83 in - NE 5.8 mph - N/A   Drizzle
3:20 PM 50.0 °F - 50.0 °F 100% 29.83 in 2.5 mi NE 6.9 mph - N/A   Drizzle
3:50 PM 50.0 °F - 50.0 °F 100% 29.83 in 2.8 mi NE 9.2 mph - N/A   Light Drizzle
4:20 PM 50.0 °F - 48.2 °F 94% 29.83 in 2.2 mi NE 10.4 mph - N/A   Drizzle
4:50 PM 48.2 °F - 48.2 °F 100% 29.86 in 2.5 mi ENE 8.1 mph - N/A   Drizzle
5:20 PM 48.2 °F - 48.2 °F 100% 29.86 in 4.3 mi ENE 9.2 mph - N/A   Light Drizzle
5:50 PM 48.2 °F - 48.2 °F 100% 29.86 in 3.7 mi ENE 8.1 mph - N/A   Light Drizzle
6:20 PM 48.2 °F - 48.2 °F 100% 29.89 in 3.7 mi ENE 9.2 mph - N/A   Light Drizzle
6:50 PM 48.2 °F - 48.2 °F 100% 29.89 in 4.3 mi ENE 9.2 mph - N/A   Light Drizzle
7:20 PM 48.2 °F - 48.2 °F 100% 29.89 in 5.0 mi ENE 9.2 mph - N/A   Light Drizzle
7:50 PM 48.2 °F - 48.2 °F 100% 29.92 in 6.2 mi ENE 8.1 mph - N/A   Overcast
8:20 PM 48.2 °F - 46.4 °F 93% 29.92 in 4.3 mi ENE 8.1 mph - N/A Rain Light Rain
8:50 PM 48.2 °F - 46.4 °F 93% 29.92 in 2.5 mi ENE 6.9 mph - N/A   Drizzle
9:20 PM 48.2 °F - 48.2 °F 100% 29.95 in 6.2 mi ENE 8.1 mph - N/A   Overcast
9:50 PM 48.2 °F - 48.2 °F 100% 29.95 in 6.2 mi ENE 5.8 mph - N/A   Overcast
10:20 PM 48.2 °F - 48.2 °F 100% 29.95 in 6.2 mi ENE 8.1 mph - N/A   Overcast
10:50 PM 48.2 °F - 46.4 °F 93% 29.95 in 6.2 mi ENE 5.8 mph - N/A   Overcast
11:20 PM 48.2 °F - 46.4 °F 93% 29.98 in 6.2 mi ENE 5.8 mph - N/A   Overcast
11:50 PM 48.2 °F - 46.4 °F 93% 29.98 in 6.2 mi East 5.8 mph - N/A   Mostly Cloudy